Location: Daytona Beach
(29.2106°N, 81.0231°W)
Time: 22:46:07
(UTC-04:00)

X-37B - Pass Details

Date: 23 June 2021
Orbit: 383 x 392 km, 45.0° (Epoch: 01 July)

Event Time Altitude Azimuth Distance (km) Brightness Sun altitude
Rises 21:00:23 0° 229° (SW) 2,244 4.7 -7.2°
Reaches altitude 10° 21:02:27 10° 228° (SW) 1,393 3.6 -7.6°
Maximum altitude 21:05:35 78° 142° (SE) 392 0.5 -8.1°
Drops below altitude 10° 21:08:43 10° 55° (NE) 1,397 3.2 -8.7°
Sets 21:10:47 0° 54° (NE) 2,251 4.2 -9.1°
